Weather History for Platteville, WI

Change the Weather History Date:

Friday, May 4, 2012

  Actual Average (KDBQ) Record (KDBQ)
Temperature  
Mean Temperature 67 °F 55 °F  
Max Temperature 77 °F 65 °F 89 °F (1918)
Min Temperature 57 °F 45 °F 25 °F (2011)
Degree Days  
Heating Degree Days 0 10  
Month to date heating degree days 43  
Since 1 July heating degree days 6864  
Cooling Degree Days 2 0  
Month to date cooling degree days 0  
Year to date cooling degree days 5  
Growing Degree Days 17 (Base 50)    
Moisture  
Dew Point 59 °F    
Average Humidity 79    
Maximum Humidity 94    
Minimum Humidity 57    
Precipitation  
Precipitation 0.00 in 0.14 in 1.33 in (1913)
Month to date precipitation 0.54  
Year to date precipitation 9.22  
Snow  
Snow 0.00 in 0.10 in - ()
Month to date snowfall 0.1  
Since 1 July snowfall 42.0  
Snow Depth -    
Sea Level Pressure  
Sea Level Pressure 29.94 in    
Wind  
Wind Speed 6 mph (East)    
Max Wind Speed 20 mph    
Max Gust Speed 28 mph    
Visibility 10 miles    
Events      
T = Trace of Precipitation, MM = Missing Value Source: NWS Daily Summary

Daily Weather History Graph

Daily Weather History Graph

Search for Another Location

Airport:

Trip Planner

Search our weather history database for the weather conditions in past years. The results will help you decide how hot, cold, wet, or windy it might be!

Date:

Astronomy

May. 04, 2012 Rise Set
Actual Time 5:51 AM CDT 8:06 PM CDT
Civil Twilight 5:20 AM CDT 8:37 PM CDT
Nautical Twilight 4:41 AM CDT 9:16 PM CDT
Astronomical Twilight 3:59 AM CDT 9:58 PM CDT
Moon 6:43 PM CDT (5/4) 4:34 AM CDT (5/4)
Length of Visible Light 15h 16m
Length of Day
14h 14m
Waxing Gibbous, 97% of the Moon is Illuminated
May 4
Waxing Gibbous
May 5
Full
May 12
Last Quarter
May 20
New
May 28
First Quarter

Hourly Weather History & Observations

Time (CDT) Temp. Dew Point Humidity Pressure Visibility Wind Dir Wind Speed Gust Speed Precip Events Conditions
12:15 AM 68.0 °F 60.8 °F 78% 29.88 in 10.0 mi Calm Calm - N/A   Clear
12:35 AM 68.0 °F 60.8 °F 78% 29.89 in 10.0 mi SW 4.6 mph - N/A   Clear
12:55 AM 66.2 °F 60.8 °F 83% 29.88 in 10.0 mi SSW 4.6 mph - N/A   Clear
1:55 AM 64.4 °F 60.8 °F 88% 29.89 in 10.0 mi SSW 4.6 mph - N/A   Clear
2:15 AM 64.4 °F 60.8 °F 88% 29.88 in 10.0 mi SW 4.6 mph - N/A   Clear
2:55 AM 64.4 °F 60.8 °F 88% 29.88 in 10.0 mi SSW 6.9 mph - N/A   Clear
3:15 AM 62.6 °F 60.8 °F 94% 29.88 in 10.0 mi SSW 5.8 mph - N/A   Scattered Clouds
3:35 AM 62.6 °F 60.8 °F 94% 29.88 in 10.0 mi Calm Calm - N/A   Mostly Cloudy
3:55 AM 62.6 °F 60.8 °F 94% 29.89 in 10.0 mi SSW 3.5 mph - N/A   Mostly Cloudy
4:15 AM 62.6 °F 59.0 °F 88% 29.89 in 10.0 mi SSE 4.6 mph - N/A   Clear
4:35 AM 62.6 °F 59.0 °F 88% 29.90 in 10.0 mi SSE 5.8 mph - N/A   Clear
4:55 AM 62.6 °F 59.0 °F 88% 29.89 in 10.0 mi SSE 5.8 mph - N/A   Clear
5:15 AM 62.6 °F 59.0 °F 88% 29.89 in 10.0 mi SE 4.6 mph - N/A   Clear
5:35 AM 60.8 °F 59.0 °F 94% 29.89 in 7.0 mi Calm Calm - N/A   Clear
5:55 AM 60.8 °F 59.0 °F 94% 29.89 in 3.0 mi Calm Calm - N/A   Clear
6:15 AM 60.8 °F 59.0 °F 94% 29.91 in 4.0 mi North 3.5 mph - N/A   Clear
6:35 AM 60.8 °F 59.0 °F 94% 29.92 in 7.0 mi Calm Calm - N/A   Clear
6:55 AM 60.8 °F 59.0 °F 94% 29.93 in 5.0 mi South 3.5 mph - N/A   Clear
7:15 AM 62.6 °F 59.0 °F 88% 29.94 in 4.0 mi SSW 3.5 mph - N/A   Clear
7:35 AM 62.6 °F 60.8 °F 94% 29.94 in 7.0 mi South 4.6 mph - N/A   Clear
7:55 AM 64.4 °F 60.8 °F 88% 29.94 in 10.0 mi SSW 4.6 mph - N/A   Clear
8:15 AM 66.2 °F 59.0 °F 78% 29.94 in 10.0 mi SSW 5.8 mph - N/A   Clear
8:35 AM 68.0 °F 59.0 °F 73% 29.94 in 10.0 mi SSW 6.9 mph - N/A   Clear
8:55 AM 68.0 °F 59.0 °F 73% 29.94 in 10.0 mi SSW 3.5 mph - N/A   Clear
9:15 AM 68.0 °F 59.0 °F 73% 29.94 in 10.0 mi WSW 3.5 mph - N/A   Clear
9:55 AM 69.8 °F 59.0 °F 68% 29.93 in 10.0 mi Calm Calm - N/A   Clear
10:15 AM 69.8 °F 59.0 °F 68% 29.93 in 10.0 mi NNE 4.6 mph - N/A   Clear
10:35 AM 71.6 °F 59.0 °F 64% 29.94 in 10.0 mi Calm Calm - N/A   Clear
10:55 AM 71.6 °F 60.8 °F 69% 29.95 in 10.0 mi Calm Calm - N/A   Clear
11:15 AM 71.6 °F 60.8 °F 69% 29.96 in 10.0 mi Calm Calm - N/A   Clear
11:35 AM 73.4 °F 60.8 °F 65% 29.96 in 10.0 mi ESE 3.5 mph - N/A   Scattered Clouds
11:55 AM 73.4 °F 60.8 °F 65% 29.95 in 10.0 mi Calm Calm - N/A   Scattered Clouds
12:15 PM 75.2 °F 62.6 °F 65% 29.95 in 10.0 mi ENE 4.6 mph - N/A   Scattered Clouds
12:35 PM 75.2 °F 60.8 °F 61% 29.94 in 10.0 mi ESE 6.9 mph - N/A   Mostly Cloudy
12:55 PM 77.0 °F 60.8 °F 57% 29.94 in 10.0 mi ESE 10.4 mph - N/A   Scattered Clouds
1:15 PM 75.2 °F 62.6 °F 65% 29.94 in 10.0 mi ENE 11.5 mph - N/A   Clear
1:35 PM 75.2 °F 64.4 °F 69% 29.94 in 10.0 mi ENE 13.8 mph 19.6 mph N/A   Mostly Cloudy
1:55 PM 77.0 °F 64.4 °F 65% 29.93 in 10.0 mi NE 12.7 mph 18.4 mph N/A   Mostly Cloudy
2:15 PM 73.4 °F 62.6 °F 69% 29.93 in 10.0 mi NE 15.0 mph 20.7 mph N/A   Overcast
2:55 PM 73.4 °F 62.6 °F 69% 29.92 in 10.0 mi ENE 16.1 mph 25.3 mph N/A   Mostly Cloudy
3:15 PM 71.6 °F 62.6 °F 73% 29.92 in 10.0 mi ENE 19.6 mph 23.0 mph N/A   Mostly Cloudy
3:35 PM 71.6 °F 60.8 °F 69% 29.92 in 10.0 mi ENE 18.4 mph 23.0 mph N/A   Mostly Cloudy
3:55 PM 69.8 °F 60.8 °F 73% 29.92 in 10.0 mi ENE 17.3 mph 25.3 mph N/A   Scattered Clouds
4:15 PM 68.0 °F 59.0 °F 73% 29.91 in 10.0 mi ENE 18.4 mph 27.6 mph N/A   Scattered Clouds
4:35 PM 66.2 °F 59.0 °F 78% 29.91 in 10.0 mi NE 18.4 mph 23.0 mph N/A   Clear
4:55 PM 64.4 °F 59.0 °F 83% 29.92 in 10.0 mi ENE 17.3 mph 25.3 mph N/A   Scattered Clouds
5:15 PM 64.4 °F 59.0 °F 83% 29.92 in 10.0 mi ENE 18.4 mph 24.2 mph N/A   Clear
5:35 PM 64.4 °F 59.0 °F 83% 29.92 in 10.0 mi ENE 16.1 mph - N/A   Clear
5:55 PM 64.4 °F 57.2 °F 77% 29.94 in 10.0 mi ENE 15.0 mph - N/A   Mostly Cloudy
6:15 PM 64.4 °F 57.2 °F 77% 29.94 in 10.0 mi ENE 9.2 mph - N/A   Overcast
6:35 PM 64.4 °F 57.2 °F 77% 29.96 in 10.0 mi NE 9.2 mph - N/A   Overcast
6:55 PM 62.6 °F 57.2 °F 82% 29.97 in 10.0 mi NE 10.4 mph - N/A   Overcast
7:15 PM 62.6 °F 55.4 °F 77% 29.99 in 10.0 mi NE 12.7 mph 16.1 mph N/A   Overcast
7:35 PM 62.6 °F 55.4 °F 77% 29.99 in 10.0 mi ENE 12.7 mph - N/A   Overcast
7:55 PM 60.8 °F 55.4 °F 82% 29.99 in 10.0 mi ENE 16.1 mph - N/A   Overcast
8:15 PM 60.8 °F 55.4 °F 82% 29.99 in 10.0 mi ENE 13.8 mph - N/A   Overcast
8:35 PM 60.8 °F 55.4 °F 82% 30.00 in 10.0 mi ENE 13.8 mph - N/A   Overcast
8:55 PM 60.8 °F 55.4 °F 82% 30.00 in 10.0 mi ENE 12.7 mph - N/A   Overcast
9:15 PM 60.8 °F 55.4 °F 82% 29.99 in 10.0 mi ENE 11.5 mph - N/A   Overcast
9:35 PM 60.8 °F 53.6 °F 77% 29.99 in 10.0 mi ENE 18.4 mph - N/A   Overcast
9:55 PM 59.0 °F 51.8 °F 77% 29.98 in 10.0 mi East 16.1 mph - N/A   Mostly Cloudy
10:15 PM 59.0 °F 51.8 °F 77% 30.01 in 10.0 mi ENE 10.4 mph - N/A   Overcast
10:35 PM 59.0 °F 51.8 °F 77% 30.00 in 10.0 mi NNE 8.1 mph 21.9 mph N/A   Overcast
10:55 PM 59.0 °F 51.8 °F 77% 30.00 in 10.0 mi NE 10.4 mph - N/A   Overcast
11:15 PM 59.0 °F 51.8 °F 77% 29.98 in 10.0 mi ENE 11.5 mph 17.3 mph N/A   Overcast
11:35 PM 57.2 °F 51.8 °F 82% 29.98 in 10.0 mi ENE 10.4 mph - N/A   Overcast
11:55 PM 57.2 °F 51.8 °F 82% 29.99 in 10.0 mi ENE 12.7 mph 17.3 mph N/A   Overcast